STARLINK-37901

Last updated on Sun Aug 09 2026 00:02:04 GMT+0000 (Coordinated Universal Time)

1 69960U 26157T 26220.58335648 -.02744639 00000+0 -70905-1 0 9993 2 69960 53.1604 174.6444 0000763 96.4971 123.9987 15.42720436 6080
UTC large
Height (km)
Speed (km/s)
/
Latitude / Longitude
Inclination (degrees)
Orbital Period (minutes)
Azimuth
Elevation
Range (km)
Doppler Factor

Next 0 passes for location: London (51.5072 / 0.1276)

No passes found over London.
STARLINK-37901